When you browse on this site, cookies collect data to enhance your experience and personalize the content and advertising you see.
Visit our Privacy Policy to learn more. By continuing to use the site, you agree to this use of cookies and data.
  • în România
  • Lista ţărilor
  • Pe 7 zile
  • Temperatura apei
  • Hartă satelitară
  • Meteo pe hartă
  • Widget-uri
  • user-avatar
    Intrare

    Meteo pe oră la Shannon

    Astăzi, 21 Ianuarie, Luni

    Timp Temperatura Precipitaţii Vânt Presiune Umiditate
    00:00 +3°C° 0 mm 1 m/s 769 mmHg 87%
    01:00 +3°C° 0 mm 1 m/s 769 mmHg 88%
    02:00 +2°C° 0 mm 2 m/s 768 mmHg 89%
    03:00 +2°C° 0 mm 2 m/s 768 mmHg 89%
    04:00 +2°C° 0 mm 2 m/s 767 mmHg 89%
    05:00 +2°C° 0 mm 2 m/s 767 mmHg 88%
    06:00 +1°C° 0 mm 3 m/s 766 mmHg 88%
    07:00 +2°C° 0 mm 3 m/s 765 mmHg 87%
    08:00 +2°C° 0 mm 3 m/s 764 mmHg 86%
    09:00 +3°C° 0 mm 4 m/s 763 mmHg 84%
    10:00 +5°C° 0 mm 5 m/s 761 mmHg 82%
    11:00 +5°C° 0 mm 6 m/s 760 mmHg 80%
    12:00 +5°C° 1.4 mm 7 m/s 759 mmHg 84%
    13:00 +5°C° 1.4 mm 7 m/s 758 mmHg 87%
    14:00 +5°C° 1.4 mm 7 m/s 757 mmHg 91%
    15:00 +4°C° 1.1 mm 6 m/s 756 mmHg 87%
    16:00 +3°C° 1.1 mm 5 m/s 756 mmHg 84%
    17:00 +3°C° 1.1 mm 4 m/s 756 mmHg 80%
    18:00 +2°C° 0.2 mm 5 m/s 756 mmHg 80%
    19:00 +2°C° 0.2 mm 6 m/s 756 mmHg 80%
    20:00 +2°C° 0.2 mm 6 m/s 756 mmHg 80%
    21:00 +1°C° 0.2 mm 5 m/s 756 mmHg 80%
    22:00 +1°C° 0.2 mm 5 m/s 756 mmHg 80%
    23:00 +1°C° 0.2 mm 4 m/s 755 mmHg 79%

    Mâine, 22 Ianuarie, Marţi

    Timp Temperatura Precipitaţii Vânt Presiune Umiditate
    00:00 +1°C° 0.3 mm 4 m/s 755 mmHg 82%
    01:00 +1°C° 0.3 mm 4 m/s 754 mmHg 84%
    02:00 +1°C° 0.3 mm 4 m/s 754 mmHg 86%
    03:00 +1°C° 0.4 mm 4 m/s 754 mmHg 85%
    04:00 +1°C° 0.4 mm 4 m/s 754 mmHg 84%
    05:00 +1°C° 0.4 mm 5 m/s 753 mmHg 83%
    06:00 +1°C° 0.2 mm 4 m/s 754 mmHg 84%
    07:00 +1°C° 0.2 mm 4 m/s 754 mmHg 84%
    08:00 +1°C° 0.2 mm 4 m/s 754 mmHg 85%
    09:00 +1°C° 0.2 mm 4 m/s 754 mmHg 85%
    10:00 +1°C° 0.2 mm 4 m/s 754 mmHg 86%
    11:00 +1°C° 0.2 mm 4 m/s 754 mmHg 87%
    12:00 +3°C° 0.3 mm 4 m/s 754 mmHg 87%
    13:00 +3°C° 0.3 mm 4 m/s 754 mmHg 88%
    14:00 +3°C° 0.3 mm 3 m/s 754 mmHg 89%
    15:00 +3°C° 0.4 mm 3 m/s 754 mmHg 90%
    16:00 +3°C° 0.4 mm 2 m/s 754 mmHg 92%
    17:00 +4°C° 0.4 mm 1 m/s 754 mmHg 93%
    18:00 +4°C° 0.1 mm 1 m/s 754 mmHg 93%
    19:00 +4°C° 0.1 mm 1 m/s 754 mmHg 93%
    20:00 +4°C° 0.1 mm 1 m/s 754 mmHg 94%
    21:00 +4°C° 0 mm 1 m/s 754 mmHg 94%
    22:00 +4°C° 0 mm 1 m/s 755 mmHg 94%
    23:00 +4°C° 0 mm 1 m/s 755 mmHg 94%

    Poimâine, 23 Ianuarie, Miercuri

    Timp Temperatura Precipitaţii Vânt Presiune Umiditate
    00:00 +4°C° 0 mm 1 m/s 755 mmHg 94%
    01:00 +4°C° 0 mm 1 m/s 755 mmHg 94%
    02:00 +3°C° 0 mm 0 m/s 755 mmHg 94%
    03:00 +5°C° 0.2 mm 1 m/s 755 mmHg 95%
    04:00 +5°C° 0.2 mm 1 m/s 755 mmHg 96%
    05:00 +5°C° 0.2 mm 1 m/s 755 mmHg 97%
    06:00 +5°C° 0.2 mm 1 m/s 756 mmHg 96%
    07:00 +4°C° 0.2 mm 0 m/s 756 mmHg 96%
    08:00 +4°C° 0.2 mm 0 m/s 757 mmHg 96%
    09:00 +5°C° 0 mm 0 m/s 757 mmHg 96%
    10:00 +6°C° 0 mm 0 m/s 757 mmHg 96%
    11:00 +6°C° 0 mm 0 m/s 758 mmHg 96%
    12:00 +6°C° 0 mm 0 m/s 758 mmHg 95%
    13:00 +6°C° 0 mm 0 m/s 758 mmHg 95%
    14:00 +8°C° 0 mm 1 m/s 758 mmHg 95%
    15:00 +7°C° 0 mm 1 m/s 758 mmHg 95%
    16:00 +6°C° 0 mm 1 m/s 758 mmHg 96%
    17:00 +5°C° 0 mm 1 m/s 759 mmHg 97%
    18:00 +6°C° 0.1 mm 1 m/s 759 mmHg 97%
    19:00 +6°C° 0.1 mm 1 m/s 760 mmHg 97%
    20:00 +7°C° 0.1 mm 1 m/s 760 mmHg 98%
    21:00 +6°C° 0.2 mm 2 m/s 760 mmHg 98%
    22:00 +7°C° 0.2 mm 2 m/s 760 mmHg 98%
    23:00 +7°C° 0.2 mm 2 m/s 760 mmHg 98%

    24 Ianuarie, Joi

    Timp Temperatura Precipitaţii Vânt Presiune Umiditate
    00:00 +8°C° 0.1 mm 2 m/s 760 mmHg 98%
    01:00 +9°C° 0.1 mm 3 m/s 761 mmHg 98%
    02:00 +9°C° 0.1 mm 3 m/s 761 mmHg 98%
    03:00 +10°C° 0.3 mm 4 m/s 761 mmHg 97%
    04:00 +10°C° 0.3 mm 4 m/s 761 mmHg 97%
    05:00 +9°C° 0.3 mm 5 m/s 761 mmHg 97%
    06:00 +9°C° 0.1 mm 5 m/s 761 mmHg 96%
    07:00 +10°C° 0.1 mm 4 m/s 762 mmHg 96%
    08:00 +10°C° 0.1 mm 4 m/s 762 mmHg 96%
    09:00 +10°C° 0 mm 4 m/s 762 mmHg 95%
    10:00 +10°C° 0 mm 4 m/s 763 mmHg 94%
    11:00 +10°C° 0 mm 5 m/s 763 mmHg 93%
    12:00 +10°C° 0 mm 4 m/s 763 mmHg 92%
    13:00 +10°C° 0 mm 4 m/s 763 mmHg 91%
    14:00 +10°C° 0 mm 4 m/s 763 mmHg 90%
    15:00 +10°C° 0 mm 4 m/s 763 mmHg 90%
    16:00 +8°C° 0 mm 4 m/s 764 mmHg 91%
    17:00 +9°C° 0 mm 3 m/s 764 mmHg 91%
    18:00 +9°C° 0 mm 3 m/s 764 mmHg 91%
    19:00 +8°C° 0 mm 4 m/s 764 mmHg 91%
    20:00 +8°C° 0 mm 4 m/s 764 mmHg 92%
    21:00 +8°C° 0 mm 4 m/s 764 mmHg 91%
    22:00 +8°C° 0 mm 4 m/s 764 mmHg 91%
    23:00 +8°C° 0 mm 4 m/s 764 mmHg 90%

    25 Ianuarie, Vineri

    Timp Temperatura Precipitaţii Vânt Presiune Umiditate
    00:00 +8°C° 0 mm 4 m/s 764 mmHg 90%
    01:00 +8°C° 0 mm 4 m/s 764 mmHg 91%
    02:00 +8°C° 0 mm 4 m/s 764 mmHg 91%
    03:00 +8°C° 0 mm 4 m/s 764 mmHg 90%
    04:00 +8°C° 0 mm 4 m/s 763 mmHg 90%
    05:00 +8°C° 0 mm 4 m/s 763 mmHg 90%
    06:00 +8°C° 0 mm 4 m/s 763 mmHg 91%
    07:00 +8°C° 0 mm 5 m/s 763 mmHg 92%
    08:00 +8°C° 0 mm 5 m/s 763 mmHg 93%
    09:00 +8°C° 0.1 mm 5 m/s 763 mmHg 93%
    10:00 +9°C° 0.1 mm 5 m/s 763 mmHg 93%
    11:00 +9°C° 0.1 mm 6 m/s 762 mmHg 93%
    12:00 +9°C° 0.5 mm 6 m/s 762 mmHg 93%
    13:00 +10°C° 0.5 mm 6 m/s 761 mmHg 94%
    14:00 +10°C° 0.5 mm 6 m/s 761 mmHg 95%
    15:00 +10°C° 0.2 mm 5 m/s 761 mmHg 95%
    16:00 +10°C° 0.2 mm 5 m/s 760 mmHg 95%
    17:00 +10°C° 0.2 mm 5 m/s 760 mmHg 95%
    18:00 +10°C° 0.2 mm 5 m/s 760 mmHg 95%
    19:00 +10°C° 0.2 mm 5 m/s 759 mmHg 95%
    20:00 +10°C° 0.2 mm 6 m/s 759 mmHg 95%
    21:00 +10°C° 0.5 mm 6 m/s 758 mmHg 95%
    22:00 +10°C° 0.5 mm 6 m/s 757 mmHg 94%
    23:00 +10°C° 0.5 mm 6 m/s 756 mmHg 94%

    26 Ianuarie, Sâmbătă

    Timp Temperatura Precipitaţii Vânt Presiune Umiditate
    00:00 +10°C° 0.3 mm 5 m/s 754 mmHg 93%
    01:00 +9°C° 0.3 mm 5 m/s 753 mmHg 93%
    02:00 +10°C° 0.3 mm 4 m/s 752 mmHg 93%
    03:00 +8°C° 1.8 mm 6 m/s 751 mmHg 93%
    04:00 +6°C° 1.8 mm 7 m/s 751 mmHg 93%
    05:00 +5°C° 1.8 mm 8 m/s 750 mmHg 92%
    06:00 +4°C° 0.3 mm 8 m/s 752 mmHg 89%
    07:00 +4°C° 0.3 mm 7 m/s 753 mmHg 86%
    08:00 +3°C° 0.3 mm 7 m/s 755 mmHg 83%
    09:00 +3°C° 0 mm 7 m/s 756 mmHg 80%
    10:00 +4°C° 0 mm 7 m/s 757 mmHg 76%
    11:00 +4°C° 0 mm 7 m/s 758 mmHg 73%
    12:00 +4°C° 0.1 mm 7 m/s 758 mmHg 72%
    13:00 +4°C° 0.1 mm 7 m/s 758 mmHg 71%
    14:00 +4°C° 0.1 mm 7 m/s 758 mmHg 71%
    15:00 +4°C° 0.2 mm 6 m/s 758 mmHg 73%
    16:00 +3°C° 0.2 mm 6 m/s 758 mmHg 75%
    17:00 +2°C° 0.2 mm 5 m/s 759 mmHg 78%
    18:00 +2°C° 0.1 mm 5 m/s 759 mmHg 78%
    19:00 +2°C° 0.1 mm 5 m/s 759 mmHg 78%
    20:00 +3°C° 0.1 mm 4 m/s 759 mmHg 79%
    21:00 +3°C° 0.1 mm 4 m/s 759 mmHg 79%
    22:00 +3°C° 0.1 mm 4 m/s 759 mmHg 79%
    23:00 +3°C° 0.1 mm 4 m/s 759 mmHg 79%
    Arată mai mult